DAL769 KSMF-KATL

Flight info

Callsign DAL769
Flight time N/A
Altitude 33000
Route SCTWN4 RALEY JSICA MLF DVC/N0451F350 HELPS TBE TOTOE TUL KM33G LIT MEMFS HUTCC KNSAW RUSSA GLAVN2
Aircraft B739/M-SDE2E3FGHIRWXY/LB1

Departure

Time 2026-05-08 05:24
Airport Sacramento International Airport (KSMF)

Arrival

Time N/A
Airport Hartsfield Jackson Atlanta International Airport (KATL)
Time Latitude Longitude Altitude Speed Heading
2026-05-08 05:08 38.69250 -121.58659 4 ft 0 kts 350°
2026-05-08 05:15 38.69242 -121.58658 23 ft 4 kts 341°
2026-05-08 05:15 38.69219 -121.58644 23 ft 4 kts 323°
2026-05-08 05:15 38.69204 -121.58633 24 ft 4 kts 303°
2026-05-08 05:16 38.69199 -121.58618 25 ft 4 kts 302°
2026-05-08 05:16 38.69187 -121.58522 22 ft 4 kts 268°
2026-05-08 05:17 38.69187 -121.58507 22 ft 1 kts 271°
2026-05-08 05:18 38.69187 -121.58509 22 ft 1 kts 268°
2026-05-08 05:18 38.69187 -121.58539 22 ft 4 kts 301°
2026-05-08 05:19 38.69210 -121.58530 25 ft 4 kts 81°
2026-05-08 05:19 38.69192 -121.58473 26 ft 10 kts 109°
2026-05-08 05:19 38.69185 -121.58361 22 ft 13 kts 88°
2026-05-08 05:19 38.69241 -121.58291 23 ft 13 kts
2026-05-08 05:20 38.69335 -121.58291 22 ft 15 kts
2026-05-08 05:20 38.69452 -121.58289 22 ft 19 kts
2026-05-08 05:20 38.69596 -121.58286 22 ft 22 kts
2026-05-08 05:20 38.69758 -121.58282 22 ft 23 kts
2026-05-08 05:21 38.69863 -121.58280 22 ft 23 kts
2026-05-08 05:21 38.70068 -121.58279 22 ft 22 kts
2026-05-08 05:21 38.70217 -121.58276 22 ft 21 kts
2026-05-08 05:21 38.70362 -121.58273 22 ft 21 kts
2026-05-08 05:22 38.70502 -121.58271 22 ft 20 kts
2026-05-08 05:22 38.70638 -121.58268 22 ft 19 kts
2026-05-08 05:22 38.70703 -121.58143 22 ft 19 kts 92°
2026-05-08 05:22 38.70653 -121.58009 24 ft 18 kts 165°
2026-05-08 05:23 38.70511 -121.58007 22 ft 37 kts 181°
2026-05-08 05:23 38.70000 -121.58016 23 ft 108 kts 181°
2026-05-08 05:23 38.69040 -121.58030 27 ft 165 kts 181°
2026-05-08 05:23 38.67820 -121.58044 490 ft 176 kts 180°
2026-05-08 05:24 38.66672 -121.57932 1469 ft 165 kts 158°
2026-05-08 05:24 38.65796 -121.56879 1720 ft 189 kts 115°
2026-05-08 05:24 38.65421 -121.55168 1906 ft 211 kts 103°
2026-05-08 05:24 38.65038 -121.53279 2122 ft 228 kts 107°
2026-05-08 05:25 38.64579 -121.51319 2632 ft 231 kts 107°
2026-05-08 05:25 38.64103 -121.49315 2910 ft 251 kts 108°
2026-05-08 05:25 38.63561 -121.47114 3329 ft 264 kts 108°
2026-05-08 05:25 38.63059 -121.44839 3990 ft 268 kts 97°
2026-05-08 05:26 38.63030 -121.42447 4715 ft 270 kts 88°
2026-05-08 05:26 38.63116 -121.40027 5376 ft 274 kts 88°
2026-05-08 05:26 38.63206 -121.37573 6036 ft 278 kts 88°
2026-05-08 05:26 38.63291 -121.35086 6666 ft 282 kts 89°
2026-05-08 05:27 38.63372 -121.32558 7255 ft 286 kts 89°
2026-05-08 05:27 38.63449 -121.29997 7865 ft 290 kts 88°
2026-05-08 05:27 38.63521 -121.27439 8458 ft 294 kts 88°
2026-05-08 05:27 38.63593 -121.24794 9056 ft 299 kts 88°
2026-05-08 05:28 38.63663 -121.22135 9731 ft 300 kts 88°
2026-05-08 05:28 38.63732 -121.19447 10264 ft 307 kts 88°
2026-05-08 05:28 38.63803 -121.16626 10414 ft 328 kts 88°
2026-05-08 05:28 38.63877 -121.13632 10571 ft 346 kts 88°
2026-05-08 05:29 38.63954 -121.10473 10714 ft 364 kts 88°
2026-05-08 05:29 38.64032 -121.07191 11049 ft 373 kts 88°
2026-05-08 05:29 38.64112 -121.03851 11551 ft 377 kts 88°
2026-05-08 05:29 38.64190 -121.00496 12111 ft 379 kts 88°
2026-05-08 05:30 38.64267 -120.97162 12635 ft 382 kts 88°
2026-05-08 05:30 38.64344 -120.93750 13171 ft 385 kts 88°
2026-05-08 05:30 38.64422 -120.90308 13675 ft 389 kts 88°
2026-05-08 05:30 38.64499 -120.86836 14155 ft 392 kts 88°
2026-05-08 05:31 38.64575 -120.83342 14641 ft 394 kts 88°
2026-05-08 05:31 38.64651 -120.79832 15134 ft 396 kts 88°
2026-05-08 05:31 38.64727 -120.76308 15620 ft 398 kts 88°
2026-05-08 05:31 38.64801 -120.72765 16105 ft 400 kts 88°
2026-05-08 05:32 38.64861 -120.69203 16570 ft 402 kts 90°
2026-05-08 05:32 38.64859 -120.68040 16723 ft 403 kts 90°
2026-05-08 05:32 38.64748 -120.62060 17513 ft 406 kts 92°
2026-05-08 05:32 38.64649 -120.58442 17965 ft 409 kts 92°
2026-05-08 05:33 38.64549 -120.54797 18405 ft 411 kts 92°
2026-05-08 05:33 38.64452 -120.51137 18809 ft 413 kts 91°
2026-05-08 05:33 38.64359 -120.47452 19184 ft 416 kts 91°
2026-05-08 05:33 38.64270 -120.43750 19555 ft 418 kts 91°
2026-05-08 05:34 38.64211 -120.41282 19801 ft 420 kts 91°
2026-05-08 05:34 38.64094 -120.36268 20308 ft 424 kts 91°
2026-05-08 05:34 38.64006 -120.32542 20651 ft 426 kts 91°
2026-05-08 05:34 38.63916 -120.28739 21030 ft 429 kts 92°
2026-05-08 05:35 38.63824 -120.24923 21423 ft 431 kts 92°
2026-05-08 05:35 38.63730 -120.21078 21778 ft 433 kts 92°